Location: Eriswell
(52.3667°N, 0.5333°E)
Time: 17:34:20
(UTC+00:00)

Daily predictions for brighter satellites

Satellite Brightness Start Highest point End
(mag) Time Altitude Azimuth Time Altitude Azimuth Time Altitude Azimuth
Cosmos 1943 3.9 16:45:29 10° S 16:50:34 36° ESE 16:55:42 10° NE
Cosmos 1470 Rocket 4.3 16:47:25 10° N 16:51:17 31° ENE 16:55:09 10° SE
Cosmos 2297 4.2 16:46:49 10° NW 16:52:27 68° WSW 16:58:04 10° SSE
Cosmos 1190 Rocket 4.3 16:47:36 10° NNW 16:52:47 75° WSW 16:57:57 10° SSE
IGS 5A 3.5 16:49:13 10° SSE 16:53:11 84° WSW 16:57:13 10° NNW
SL-4 R/B 4.4 16:50:54 10° W 16:54:10 24° SW 16:57:22 10° SSE
NOSS 2-3 (C) 4.2 16:50:21 10° NW 16:55:11 88° NE 17:01:54 10° SE
Cosmos 1624 Rocket 4.4 16:51:19 10° S 16:56:18 45° ESE 17:01:20 10° NE
SL-14 R/B 3.4 16:55:30 10° SSW 16:59:23 78° W 17:03:17 10° N
Cosmos 1850 Rocket 4.4 16:58:04 10° NNW 17:03:07 42° NE 17:08:09 10° SE
IRS-1C 4.2 17:00:27 10° SE 17:05:39 58° ENE 17:10:53 10° N
Cosmos 2333 Rocket 4.3 17:03:59 10° NNW 17:06:21 12° N 17:08:44 10° NNE
Cosmos 676 Rocket 4.0 17:01:49 10° NNW 17:07:02 89° WSW 17:12:15 10° SSE
Thor Agena Rocket 3.4 17:02:24 10° SSE 17:07:25 81° ENE 17:12:29 10° NNW
Cosmos 2237 Rocket 3.5 17:02:47 10° WSW 17:07:51 33° NW 17:12:56 10° NNE
SPOT 1/Viking Rocket 4.0 17:03:56 10° SE 17:08:41 39° ENE 17:13:26 10° N
SL-16 R/B 2.6 17:05:07 10° NNE 17:11:20 90° SSE 17:17:30 10° SSW
Cosmos 1151 Rocket 3.8 17:07:13 10° SSW 17:11:22 52° WNW 17:15:35 10° N
SL-16 R/B 2.4 17:06:19 10° SW 17:11:59 74° WNW 17:17:41 10° NNE
CORIOLIS 4.3 17:09:27 10° SSE 17:14:52 85° WSW 17:20:21 10° NNW
NOSS 3-4 (A) 4.2 17:10:45 10° S 17:15:11 28° ESE 17:19:30 12° ENE
NOSS 3-4 (C) 4.2 17:10:55 10° S 17:15:21 27° ESE 17:19:40 12° ENE
Cosmos 2322 Rocket 4.3 17:13:44 10° NNW 17:15:49 12° N 17:17:55 10° NNE
BREEZE-M DEB (TANK) 2.8 17:13:59 10° W 17:16:55 45° S 17:19:09 10° ESE
Cosmos 1703 3.8 17:18:00 10° SSE 17:20:50 27° E 17:23:36 10° NNE
Cosmos 2366 rocket 4.0 17:15:00 10° N 17:21:20 67° ENE 17:27:39 10° SSE
SAR-Lupe-4 3.9 17:18:13 10° SE 17:21:38 43° ENE 17:25:04 10° N
ATLAS 3B R/B 3.7 17:14:35 10° W 17:22:04 47° NNW 17:29:29 11° NE
CZ-2D R/B 2.7 17:19:08 10° SSE 17:22:13 61° ENE 17:25:19 10° N
SJ-12 3.7 17:18:59 10° SSE 17:22:47 65° ENE 17:26:35 10° N
USA 59 Rocket 0.7 17:21:44 10° NNW 17:24:15 22° NNE 17:26:01 16° ENE
Dummy Sat-02 4.4 17:20:46 10° N 17:24:22 81° E 17:27:57 10° S
COSMO-SKYMED 1 4.0 17:22:53 14° ENE 17:24:32 17° E 17:27:12 10° SE
ATLAS 5 CENTAUR R/B 0.9 17:22:24 10° SSW 17:25:18 53° SE 17:27:38 16° ENE
NOSS 2-1 (E) 4.4 17:23:09 10° NNW 17:25:29 19° NNE 17:26:52 15° NE
Cosmos 1484 Rocket 4.3 17:22:31 10° SSW 17:25:36 34° W 17:28:41 10° NNW
Cosmos 1633 Rocket 3.0 17:21:21 10° N 17:25:41 89° W 17:29:59 10° S
Cosmos 2218 Rocket 4.0 17:19:17 10° N 17:25:42 67° ENE 17:32:04 10° SSE
NOSS 2-1 (C) 4.3 17:25:18 10° NNW 17:27:44 21° NNE 17:29:06 17° ENE
NOSS 3-1 (A) 4.5 17:22:50 10° NW 17:28:08 32° N 17:33:26 14° ENE
Cosmos 1656 4.0 17:26:02 10° NNW 17:31:28 45° NE 17:36:47 10° ESE
Meteor 1-16 Rocket 4.1 17:27:03 10° N 17:32:17 56° ENE 17:37:33 10° SSE
Cosmos 332 Rocket 3.7 17:29:17 10° NNW 17:34:04 79° ENE 17:38:52 10° SSE
Cosmos 1666 Rocket 4.2 17:30:57 10° NNW 17:35:21 61° W 17:39:44 10° S
Cosmos 1953 2.0 17:33:08 10° N 17:36:52 76° E 17:40:33 10° SSE
Meteor 1-21 4.4 17:32:19 10° SSE 17:37:40 48° E 17:43:01 10° NNE
Resurs 1-3 3.9 17:35:13 10° SE 17:39:16 41° ENE 17:43:20 10° N
ISS -2.0 17:37:37 10° SSW 17:40:09 20° SE 17:41:35 16° ESE
Cosmos 2341 Rocket 4.1 17:34:55 10° N 17:41:19 88° WSW 17:47:35 10° S
UNK 3.7 17:36:55 10° NNE 17:41:28 87° W 17:45:58 10° SSW
BREEZE-M DEB (TANK) 3.1 17:36:42 10° WSW 17:42:14 72° SSE 17:45:23 18° E
Cosmos 1980 Rocket 3.6 17:38:33 10° NNW 17:42:25 19° NNE 17:44:09 16° NE
Cosmos 1340 Rocket 3.2 17:39:18 10° N 17:42:51 35° ENE 17:46:24 10° SE
BREEZE-M DEB (TANK) 3.8 17:40:48 10° W 17:43:17 35° S 17:50:13 10° SE
NOSS 3-1 (C) 4.2 17:38:29 10° NW 17:44:25 42° NNE 17:50:01 17° E
ERS-1 4.5 17:39:47 10° SSE 17:44:45 86° WSW 17:49:48 10° NNW
Cosmos 1328 Rocket 3.7 17:41:14 10° SSW 17:45:36 76° W 17:50:01 10° N
MOS 1 Rocket 4.0 17:41:02 10° S 17:46:15 66° W 17:51:17 10° NNW
Spot 4 Rocket 4.2 17:42:47 10° SE 17:47:42 50° ENE 17:52:39 10° N
USA 215 4.4 17:44:41 16° E 17:48:06 24° SE 17:53:10 10° S
Cosmos 1959 Rocket 4.4 17:42:53 10° N 17:49:02 87° E 17:55:12 10° S
IRS-P3 4.1 17:44:21 10° SSE 17:49:39 89° E 17:55:01 10° NNW
SKYMED 2 3.8 17:50:23 10° NNE 17:54:37 48° E 17:58:49 10° S
Nadezhda 3 Rocket 4.4 17:49:37 10° SSE 17:55:08 36° E 18:00:42 10° NNE
Meteor 1-12 Rocket 4.1 17:50:26 10° N 17:56:06 75° ENE 18:01:45 10° SSE
COSMOS 2455 3.6 17:55:11 10° NNW 18:00:37 33° NNE 18:03:11 24° ENE
Okean 3 4.1 17:57:06 10° SSE 18:00:39 30° E 18:01:04 29° ENE
NOSS 2-1 (D) 3.7 17:58:22 10° NNW 18:01:16 33° NE 18:01:40 32° NE
Cosmos 2219 Rocket 4.3 18:00:47 10° NNW 18:02:37 11° N 18:04:28 10° NNE
Cosmos 2056 Rocket 4.0 17:57:37 10° SW 18:02:41 59° WNW 18:07:44 10° NNE
SJ 16-02 4.3 18:00:15 10° NW 18:03:14 19° W 18:06:14 10° SW
PSLV R/B 3.5 18:02:10 10° SSE 18:06:13 54° ENE 18:10:18 10° N
CZ-4 R/B 4.4 18:02:38 10° S 18:06:36 77° WSW 18:10:36 10° NNW
Cosmos 1697 Rocket 3.3 18:02:28 10° NNW 18:07:41 36° NE 18:09:49 27° E
ARIANE 5 R/B 3.6 18:02:55 10° S 18:07:58 49° W 18:13:02 10° NNW
Cosmos 1515 Rocket 3.5 18:06:18 10° S 18:10:42 85° ESE 18:15:10 10° NNE
YAOGAN 1 2.4 18:06:31 10° SSE 18:10:45 79° ENE 18:15:02 10° NNW
SL-16 R/B 4.1 18:08:20 10° NNW 18:11:04 13° NNE 18:12:06 13° NNE
Cosmos 2360 Rocket 4.3 18:09:28 10° NNW 18:11:21 12° N 18:13:00 10° NNE
Cosmos 1603 3.6 18:06:15 10° SSW 18:11:51 69° ESE 18:15:41 21° NE
Meteor 2-15 4.5 18:11:54 10° NNW 18:18:04 83° W 18:24:10 10° S
Cosmos 1833 Rocket 4.1 18:15:55 10° SSE 18:18:28 19° SE 18:18:28 19° SE
Resurs 01 Rocket 1.7 18:16:25 10° SE 18:20:37 48° ENE 18:24:51 10° N
SL-24 R/B - RUBIN 2 4.0 18:19:00 10° NW 18:23:19 61° SW 18:27:38 10° SSE
Okean 2 3.0 18:20:05 10° S 18:23:56 74° E 18:25:32 33° NNE
USA 267 3.2 18:20:25 24° ESE 18:24:43 82° NNE 18:31:17 10° WNW
Cosmos 967 Rocket 4.5 18:18:47 10° NW 18:25:17 67° NE 18:29:19 24° ESE
RESURS DK-1 2.7 18:28:48 10° S 18:32:05 43° SE 18:32:05 43° SE
Cosmos 292 Rocket 4.2 18:28:44 10° NNW 18:33:23 61° WSW 18:37:59 10° S
Cosmos 1943 3.9 18:28:57 10° SW 18:34:26 51° NW 18:38:47 16° NNE
Cosmos 1933 Rocket 4.2 18:32:56 10° NNW 18:37:16 56° W 18:41:32 10° S
Cosmos 1733 Rocket 4.2 18:33:13 10° N 18:35:39 29° NNE 18:35:39 29° NNE
BREEZE-M DEB (TANK) 3.7 18:35:21 10° SW 18:38:04 39° SSE 18:38:15 38° SE
Cosmos 1331 Rocket 4.1 18:34:01 10° SSW 18:39:09 75° WNW 18:42:22 23° NNE
USA 276 4.3 18:37:57 10° SW 18:38:41 16° SSW 18:38:41 16° SSW
CZ-2D R/B 4.1 18:37:32 10° S 18:41:17 50° W 18:45:01 10° NNW
Cosmos 1605 Rocket 4.3 18:36:49 10° N 18:42:56 44° ENE 18:43:51 41° E
Cosmos 2360 4.3 18:40:25 10° NNW 18:46:09 76° WSW 18:51:50 10° SSE
Cosmos 1302 Rocket 3.9 18:44:27 10° SSW 18:49:40 67° ESE 18:50:34 56° ENE
Cosmos 2333 Rocket 4.0 18:49:41 10° NNW 18:52:46 16° NNE 18:52:46 16° NNE
Cosmos 2237 Rocket 4.4 18:50:55 10° NW 18:53:45 14° NNW 18:56:30 10° NNE
Cosmos 1339 Rocket 4.3 18:48:28 10° S 18:54:36 71° E 19:00:41 10° NNE
Radarsat Rocket 4.5 18:50:07 10° S 18:56:16 60° WSW 19:02:04 10° NNW
SL-16 R/B 4.1 18:52:42 10° W 18:57:04 22° NNW 19:00:45 13° NNE
COSMO-SKYMED 1 2.8 18:59:10 45° NNW 19:00:14 63° WNW 19:04:18 10° SSW
Cosmos 2322 Rocket 4.2 18:59:19 10° NNW 19:01:47 15° NNE 19:01:47 15° NNE
NOSS 3-4 (A) 3.3 19:00:03 10° SW 19:05:24 72° NW 19:06:57 49° NNE
NOSS 3-4 (C) 3.3 19:00:11 10° SW 19:05:34 72° NW 19:07:07 49° NNE
CARTOSAT-1 4.3 19:02:06 10° S 19:06:13 51° W 19:10:21 10° NNW
ATLAS 5 CENTAUR R/B 3.0 19:05:13 10° W 19:07:02 22° NW 19:07:02 22° NW
Cosmos 1452 Rocket 4.0 19:03:07 10° SW 19:08:18 59° WNW 19:10:32 33° N
DNEPR-1 R/B 3.8 19:06:48 10° SW 19:10:41 63° W 19:10:41 63° W
USA 59 Rocket 1.1 19:09:51 10° NW 19:11:41 32° WNW 19:11:41 32° WNW
ATLAS 3B R/B 3.9 19:07:29 10° WNW 19:14:39 36° N 19:16:43 31° NNE
ISS -1.4 19:13:13 10° WSW 19:14:32 22° WSW 19:14:32 22° WSW
Cosmos 1934 Rocket 4.1 19:13:21 10° NNW 19:19:28 73° W 19:25:38 10° S
NOSS 3-1 (A) 3.9 19:13:49 10° NW 19:20:15 57° NE 19:20:50 55° NE
Cosmos 1980 Rocket 2.9 19:22:07 10° NNW 19:25:55 40° N 19:25:55 40° N
USA 215 3.2 19:32:02 66° SSE 19:32:02 66° SSE 19:38:28 10° SW
NOSS 3-1 (C) 3.8 19:29:05 10° NW 19:35:53 86° SW 19:37:23 63° SE
BREEZE-M DEB (TANK) 3.9 19:38:52 10° WSW 19:43:04 71° SSE 19:43:30 69° SE
COSMOS 2455 3.0 19:41:07 10° NW 19:46:20 67° NW 19:46:20 67° NW
Cosmos 2219 Rocket 4.4 19:45:43 10° NNW 19:47:00 13° N 19:47:00 13° N
Cosmos 1697 Rocket 3.2 19:46:22 10° NW 19:51:35 55° W 19:51:35 55° W
SL-16 R/B 4.2 19:52:06 10° NNW 19:53:56 19° N 19:53:56 19° N
Resurs 01 Rocket 3.8 19:53:42 10° SW 19:57:13 24° W 20:00:46 10° NW
Cosmos 2360 Rocket 4.4 19:53:25 10° NNW 19:54:44 15° N 19:54:44 15° N
Cosmos 1833 Rocket 4.2 19:57:42 10° SW 20:00:12 27° SW 20:00:12 27° SW
USA 267 3.9 20:07:46 46° SW 20:08:04 47° SW 20:14:22 10° WNW
ATLAS 3B R/B 4.2 20:59:25 10° NW 21:03:57 34° NNW 21:03:57 34° NNW
